DateTimeUTC,F1_A11,F1_S11,BsB_S11,BsG_S11,BsR_S11,BbsB_S11,BbsG_S11,BbsR_S11,BaB_A11,BaG_A11,BaR_A11,Tu_S11,T_S11,Uu_S11,U_S11,P_S11,T1_A11
2021-07-07T13:00:00Z,00000200,20000000,,,,,,,0000.15,0000.37,0000.21,19.5,20.9,08.1,07.4,0655.4,31.2
2021-07-07T13:01:00Z,00000200,20000000,,,,,,,-000.01,-000.10,0000.12,19.5,21.0,08.1,07.4,0655.5,31.2
2021-07-07T13:02:00Z,00000200,20000000,,,,,,,0000.07,0000.17,-000.06,19.5,21.1,08.0,07.3,0655.5,31.2
2021-07-07T13:03:00Z,00000200,60000000,,,,,,,0000.31,0000.06,-000.15,19.5,21.2,08.0,07.2,0655.5,31.2
2021-07-07T13:04:00Z,00000200,40000000,0000.15,0000.08,0000.04,-000.16,-000.00,0000.09,-000.25,0000.14,0000.30,19.5,21.7,07.9,06.9,0656.6,31.2
2021-07-07T13:05:00Z,00000200,00000000,-000.33,0000.18,-000.09,0000.37,-000.11,-000.03,0000.54,0000.04,-000.04,19.5,21.8,07.8,06.8,0656.7,31.1
2021-07-07T13:06:00Z,00000200,00000000,-000.18,-000.05,-000.10,-000.16,0000.08,-000.04,0000.10,0000.23,0000.25,19.5,21.9,08.0,06.9,0656.9,31.1
2021-07-07T13:07:00Z,00000200,00000000,-000.35,0000.24,0000.04,-000.49,-000.04,-000.08,-000.18,-000.24,-000.37,19.4,22.0,07.9,06.7,0656.8,31.1
2021-07-07T13:08:00Z,00000200,00000000,0000.02,0000.26,-000.12,-000.39,0000.27,-000.05,0000.05,-000.09,0000.27,19.4,22.1,08.0,06.7,0656.9,31.1
2021-07-07T13:09:00Z,00000200,00000000,-000.18,0000.31,-000.03,-000.48,0000.13,0000.09,0000.22,0000.29,0000.28,19.3,22.3,08.0,06.7,0656.8,31.1
2021-07-07T13:10:00Z,00000200,00000000,0000.48,0000.17,-000.03,-000.14,0000.36,0000.07,-000.09,-000.13,-000.16,19.3,22.3,08.0,06.6,0656.8,31.1
2021-07-07T13:11:00Z,00000200,00000000,0000.08,0000.08,-000.08,-000.34,-000.07,-000.03,-000.09,0000.02,0000.04,19.2,22.4,08.0,06.6,0656.9,31.1
2021-07-07T13:12:00Z,00000200,00000000,-000.20,-000.01,0000.05,0000.15,0000.13,-000.08,0000.51,0000.09,-000.01,19.2,22.5,07.9,06.4,0656.7,31.1
2021-07-07T13:13:00Z,00000200,00000000,-000.31,0000.29,-000.11,-000.01,-000.13,0000.15,-000.08,0000.32,0000.04,19.2,22.6,08.0,06.4,0656.8,31.1
2021-07-07T13:14:00Z,00000200,00000000,-000.71,0000.21,0000.12,-000.17,-000.17,-000.11,0000.09,-000.47,0000.27,19.1,22.7,07.7,06.2,0656.9,31.1
2021-07-07T13:15:00Z,00000200,00000000,-000.06,0000.22,0000.02,-000.18,0000.28,0000.01,-000.13,-000.12,0000.01,19.1,22.8,07.9,06.3,0657.0,31.1
2021-07-07T13:16:00Z,00000200,00000000,-000.63,0000.37,-000.11,-000.23,0000.27,0000.08,0000.32,0000.75,0000.35,19.1,22.8,07.9,06.3,0657.0,31.1
2021-07-07T13:17:00Z,00000200,00000000,-000.04,0000.25,-000.07,0000.14,0000.06,-000.16,-000.31,-000.41,-000.09,19.1,22.9,07.9,06.2,0656.9,31.1
2021-07-07T13:18:00Z,00000200,00000000,0000.33,0000.21,0000.06,-000.42,0000.11,-000.05,0000.16,0000.04,-000.45,19.0,23.0,07.8,06.1,0656.9,31.1
2021-07-07T13:19:00Z,00000200,00000000,-000.03,0000.46,0000.01,-000.30,0000.17,-000.10,0000.01,0000.34,0000.16,19.0,23.0,07.9,06.1,0657.0,31.1
2021-07-07T13:20:00Z,00000200,00000000,0000.23,0000.18,-000.02,-000.06,0000.01,-000.05,0000.02,-000.09,0000.10,19.0,23.1,07.7,06.0,0656.9,31.1
2021-07-07T13:21:00Z,00000200,00000000,-000.18,-000.12,0000.23,-000.07,0000.09,0000.06,0000.19,0000.10,0000.27,19.0,23.1,07.7,05.9,0657.0,31.1
2021-07-07T13:22:00Z,00000200,00000000,-000.49,0000.52,0000.08,-000.24,0000.18,0000.10,0000.10,0000.14,0000.09,18.9,23.2,07.6,05.9,0657.0,31.1
2021-07-07T13:23:00Z,00000200,00000000,-000.57,0000.21,0000.02,-000.28,0000.21,0000.05,-000.09,-000.37,-000.23,18.9,23.3,07.7,05.9,0656.9,31.1
2021-07-07T13:24:00Z,00000200,00000000,-000.10,0000.43,-000.10,-000.11,0000.17,0000.16,0000.14,0000.40,0000.27,18.9,23.3,07.8,05.9,0657.1,31.1
2021-07-07T13:25:00Z,00000200,00000000,-000.08,0000.57,-000.20,0000.40,-000.33,-000.48,-000.20,0000.07,-000.05,18.9,23.4,07.9,06.0,0657.1,31.1
2021-07-07T13:26:00Z,00000200,00000000,-000.01,0000.19,0000.02,0000.22,-000.05,0000.07,-000.04,-000.23,0000.00,18.9,23.5,07.8,05.9,0657.0,31.1
2021-07-07T13:27:00Z,00000200,00000000,0000.50,0000.33,0000.25,0000.20,0000.13,0000.38,0000.26,0000.41,0000.20,18.9,23.5,07.7,05.8,0657.1,31.1
2021-07-07T13:28:00Z,00000200,00000000,-000.52,-000.28,0000.05,0000.28,0000.02,-000.07,0000.07,-000.08,0000.28,18.9,23.5,07.7,05.7,0657.1,31.1
2021-07-07T13:29:00Z,00000200,00000000,-000.13,0000.38,0000.20,0000.36,0000.01,-000.11,0000.26,0000.06,0000.07,18.8,23.6,07.8,05.8,0657.1,31.1
2021-07-07T13:30:00Z,00000200,00000000,-000.28,0000.17,-000.02,0000.35,-000.27,0000.09,-000.49,-000.51,-000.51,18.8,23.7,07.7,05.8,0656.9,31.1
2021-07-07T13:31:00Z,00000200,00000000,0000.39,0000.12,0000.04,-000.69,-000.19,0000.01,0000.43,0000.63,0000.08,18.8,23.7,07.7,05.7,0657.1,31.1
2021-07-07T13:32:00Z,00000200,00000000,0000.17,0000.28,0000.25,-000.43,0000.14,-000.00,-000.14,-000.01,0000.13,18.8,23.7,07.8,05.7,0657.1,31.1
2021-07-07T13:33:00Z,00000200,00000000,-000.70,0000.35,-000.13,0000.00,-000.17,-000.37,0000.39,0000.15,0000.13,18.8,23.8,07.8,05.7,0656.9,31.1
2021-07-07T13:34:00Z,00000200,00000000,-000.53,0000.33,-000.01,-000.01,0000.13,0000.11,-000.11,0000.29,0000.31,18.8,23.8,07.7,05.7,0657.0,31.1
2021-07-07T13:35:00Z,00000200,00000000,-000.30,0000.23,-000.12,-000.12,0000.12,-000.15,0000.02,-000.18,-000.22,18.8,23.9,07.8,05.7,0657.0,31.1
2021-07-07T13:36:00Z,00000200,00000000,-000.42,0000.02,0000.17,0000.02,-000.04,0000.26,0000.07,-000.29,0000.09,18.8,23.9,07.7,05.7,0656.9,31.1
2021-07-07T13:36:32Z,00000200,,-000.42,0000.02,0000.17,0000.02,-000.04,0000.26,0000.07,-000.29,0000.09,,,,,,31.1
2021-07-07T13:36:33Z,00000200,,,,,,,,0000.07,-000.29,0000.09,,,,,,31.1
2021-07-07T13:56:00Z,,,,,,,,,,,,,,07.6,,,
2021-07-07T13:56:40Z,00000200,,,,,,,,-000.17,-000.41,0000.78,,,07.6,,,31.1
2021-07-07T13:56:49Z,00000200,00000000,-001.30,0000.00,0000.59,0000.52,-000.09,0000.24,-000.17,-000.41,0000.78,,,07.6,,,31.1
2021-07-07T13:56:49Z,00000200,00000000,-001.30,0000.00,0000.59,0000.52,-000.09,0000.24,-000.17,-000.41,0000.78,19.1,24.6,07.7,05.4,0656.9,31.1
2021-07-07T13:57:00Z,00000200,40000000,,,,,,,0000.08,0000.21,-000.09,19.1,24.7,07.6,05.4,0656.9,31.1
2021-07-07T13:58:00Z,00000200,60000000,,,,,,,-000.10,-000.10,-000.03,18.9,24.7,07.7,05.4,0655.9,31.1
2021-07-07T13:59:00Z,00000200,20000000,,,,,,,0000.09,0000.29,0000.16,18.9,24.8,07.7,05.3,0656.0,31.1
